Weather Roundup
Issued by NWS Springfield, MO

Home | Current Version | Previous Version | Text Only | Print | Product List | Glossary On
Versions: 1 2 3 4 5 6 7 8 9 10 11 12 13 14 15 16 17 18 19 20 21 22 23 24 25 26 27 28 29 30 31 32 33 34 35 36 37 38 39 40 41 42 43 44 45 46 47 48 49 50
000
NZUS99 KSGF 021010
HRRSGF

HOURLY WEATHER
NATIONAL WEATHER SERVICE SPRINGFIELD MO
500 AM CDT WED SEP 02 2015

......SGF CWA......

CITY           SKY/WX    TMP DP  RH WIND       PRES   REMARKS
SPRINGFIELD    CLEAR     70  65  84 SE10      30.07S
JOPLIN         CLEAR     72  66  81 S10       30.05R
WEST PLAINS    CLEAR     69  66  90 CALM      30.12R
ROLLA          CLEAR     71  67  87 S9        30.08R
OSAGE BEACH    CLEAR     70  66  88 S6        30.07R
BRANSON        CLEAR     68  64  88 CALM      30.11R

......SURROUNDING SGF CWA......

CITY           SKY/WX    TMP DP  RH WIND       PRES   REMARKS
CHANUTE        CLEAR     72  66  81 S10       30.01S
PARSONS        CLEAR     71  67  87 S5        30.03R
COFFEYVILLE    CLEAR     71  67  87 S8        30.02R
EMPORIA        PTCLDY    70  66  87 S13       29.98R
GROVE OK       CLEAR     73  68  83 S5        30.06R
ROGERS AR      CLEAR     70  65  84 S6        30.10S
SILOAM SPRINGS CLEAR     70  61  73 S3        30.07S
HARRISON AR    CLEAR     67  64  90 S3        30.10F
NEAR YELLVILLE CLEAR     66  61  82 CALM      30.07R

......KANSAS AND MISSOURI......

CITY           SKY/WX    TMP DP  RH WIND       PRES   REMARKS
KANSAS CTY INT MOCLDY    73  65  75 S9        29.99S
DOWNTOWN KC    PTCLDY    76  65  68 SW9       29.98S
COLUMBIA       CLEAR     70  69  97 S7        30.06R
SEDALIA        CLEAR     70  66  87 S8        30.05R
ST JOSEPH      CLOUDY    73  69  87 E5        29.98S
ST LOUIS       CLEAR     76  68  76 CALM      30.08R
SPIRIT OF STL  CLEAR     72  70  93 CALM      30.06R
KIRKSVILLE     MOCLDY    69  66  90 S6        30.04R
WICHITA        PTCLDY    73  63  70 S13       29.98S
TOPEKA         PTCLDY    75  66  73 VRB3      29.96R
OLATHE         PTCLDY    69  65  86 S8        30.00R

......TENNESSEE......

CITY           SKY/WX    TMP DP  RH WIND       PRES   REMARKS
MEMPHIS        CLOUDY    80  70  71 SE3       30.07S
NASHVILLE      MOCLDY    71  67  87 CALM      30.11R

......ARKANSAS.......

CITY           SKY/WX    TMP DP  RH WIND       PRES   REMARKS
FAYETTEVILLE   CLEAR     66  66 100 CALM      30.09F
FT SMITH       CLEAR     72  66  81 CALM      30.06S
LITTLE ROCK    MOCLDY    73  69  87 CALM      30.07R

......OKLAHOMA.......

CITY           SKY/WX    TMP DP  RH WIND       PRES   REMARKS
TULSA          PTCLDY    75  67  76 S8        30.01S
PONCA CITY     CLEAR     74  64  71 S6        30.00R
MCALESTER      CLEAR     72  68  87 S3        30.06S
OKLAHOMA CITY  PTCLDY    66  64  93 S7        30.03S

......IOWA............

CITY           SKY/WX    TMP DP  RH WIND       PRES   REMARKS
DES MOINES     TSTM      72  68  87 NW9       29.98S
QUAD CITIES    CLEAR     71  66  84 CALM      30.01F

......ILLINOIS........

CITY           SKY/WX    TMP DP  RH WIND       PRES   REMARKS
QUINCY         CLEAR     72  68  87 S6        30.04S
CHICAGO        PTCLDY    73  68  84 SW7       30.02S




USA.gov is the U.S. government's official web portal to all federal, state and local government web resources and services.